STARLINK-4477 (53546 NORAD) Tracking and Keplerian Element Data

This shows tracking and keplerian element data for the satellite.

Feedback or suggestion? Click here.




ElementValue
Catalog53546
NameSTARLINK-4477
Epoch Orbit1462
Epoch Day325.25001157
Epoch Year2022
RAAN60.5783
Inclination53.2148
Eccentricity0.0001384
Argument of Perigee60.1006
Mean Anonmoly241.2706
Mean Motion15.08826351
Decay Rate0.00038832
L11 53546U 22101V 22325.25001157 .00038832 00000+0 24455-2 0 9999
L22 53546 53.2148 60.5783 0001384 60.1006 241.2706 15.08826351 14620



Live tracking and technical data element details for STARLINK-4477 (NORAD 53546). STARLINK-4477 can be tracked NOW for your location showing map with azimuth and elevation plus other details from your city location.







IsCatalogInMostPopularTable: catalog: 53546, numindb: 4
Update: records affected: 1



GetName: 53546 STARLINK-4477

Hit Count: updated at: Thu, 08 Dec 2022 20:19:31 GMT